Vertical_Velocity
3 -6 0 -0 -1 -4 1 1 1 1 1 1 -0 -1 -1 1 0 6 -2 -4 -2 -5 -3 -1 -6 -7 -6 -1 -6 -5 1 3 0 2 2 -1 -4 -2 7 3 3 1 2 1 3 2 -1 -1 2
0 -1 1 -2 -5 -3 3 0 0 1 1 2 0 1 1 3 -1 -4 -1 -3 -2 1 -2 -2 -6 -3 -4 0 -2 1 -3 0 -1 7 0 0 -0 2 -4 -0 -1 -0 -2 -3 -1 -0 -3 -1 -2
4 -2 -1 -3 -1 -1 0 0 0 2 1 1 -1 0 0 1 -1 1 -1 2 -4 1 -2 -0 -1 2 4 1 3 13 6 2 7 8 10 9 5 6 6 3 1 -3 -2 -5 -3 -0 -4 -1 -1
-2 1 -3 -6 1 1 0 -0 -1 1 2 1 0 -1 -0 -2 1 1 -2 -2 -4 -3 -4 1 2 1 1 2 1 -1 2 2 -5 1 0 -4 0 4 0 2 1 2 -1 1 3 0 -1 0 -0
-2 -1 -3 -2 2 1 0 -0 -1 0 0 1 0 3 0 1 2 0 -2 -1 4 2 4 -3 -7 -1 3 -3 -1 -0 -1 -3 1 2 -3 -5 -6 -6 -3 -5 -5 -5 -1 2 2 1 1 1 0
-3 -2 -3 -0 2 1 1 0 1 -0 1 -1 -2 -0 1 0 0 -3 -0 -2 0 2 -0 1 2 3 -3 5 -1 1 -1 1 2 -1 1 2 0 0 3 6 3 1 -0 -1 -2 -2 0 1 1
-6 -3 -0 -0 1 1 -1 0 -0 -1 -0 -1 1 -1 1 1 2 -1 -2 1 -1 -3 6 -3 2 -3 1 -1 -0 -2 0 2 -3 -4 -3 -1 1 4 2 0 -1 -1 0 2 2 3 2 1 -1
-3 -6 0 0 -1 1 0 1 -0 0 1 0 -2 -1 -0 -5 -2 -2 0 -1 -3 4 -5 2 -1 2 -3 -3 -2 -1 -3 -2 -1 -2 -2 -2 -1 -2 -1 1 1 0 -1 -3 1 2 0 0 0
-3 -5 -0 0 -0 1 1 -0 0 0 -1 -2 -0 -0 -2 -1 2 -1 -1 1 2 1 -1 1 -1 -1 1 1 2 -2 -1 -1 -1 0 0 -1 -1 0 1 1 1 0 1 -0 -2 -0 1 -0 -2
-5 -2 -1 -1 -0 0 1 -0 1 1 1 1 1 -2 1 2 -1 -4 -4 3 -2 -4 -0 0 1 -1 1 -3 -1 -1 -1 1 1 0 -1 -0 1 1 2 0 -1 -2 -1 -2 -0 1 2 2 3
1 -1 -0 0 -1 -0 0 0 1 -2 -0 -3 -6 -2 -2 -1 0 3 -2 -3 3 1 -1 3 -3 -1 -0 1 1 1 0 1 -1 0 -0 0 -1 -2 -3 -1 1 -0 -1 -2 -1 -1 -1 0 2
-6 0 0 0 0 -2 -1 -1 0 1 -3 4 8 4 -2 -3 0 -6 -2 -0 0 1 2 2 1 1 2 -1 -1 -1 1 0 1 -2 -2 -3 -2 -1 -1 -1 -1 -1 -2 -1 -2 -3 -1 1 1
-3 0 1 0 1 1 1 -0 -0 -4 1 -0 0 0 -0 5 -4 -0 3 3 -0 0 4 2 1 1 3 1 -1 -1 -1 -2 -1 -1 -1 -2 -2 -1 -1 -0 -0 1 1 2 1 -1 -2 -2 -2
1 1 1 0 1 1 0 -0 0 -0 -1 1 0 -1 4 -4 -2 1 -4 -0 -2 0 -1 -1 2 4 2 -2 -1 -1 -1 -1 -1 -0 -1 -1 0 1 0 1 0 -1 -1 -2 -1 0 -1 -1 -1
1 -3 -0 -2 -1 1 1 1 -0 1 2 2 0 3 1 -0 3 2 5 -0 3 4 6 -0 -1 -0 -1 -1 -0 -1 -0 1 1 -1 -1 -2 -3 -4 -3 -2 -1 2 -0 1 0 1 2 0 -1
-4 -4 -1 1 -1 1 -1 -4 -2 -0 2 3 1 1 0 -3 -2 1 0 1 2 2 -1 -1 2 1 -3 -1 1 0 1 -1 0 1 1 1 3 4 2 -1 -2 -1 -3 -1 -1 1 -0 2 2
-4 -0 -1 -3 -0 -0 -2 -3 -2 0 0 -1 0 2 1 4 4 3 4 1 -2 -2 1 3 1 -1 1 -1 -0 0 1 -2 -4 -4 -1 1 -2 -3 -6 -2 0 4 -1 0 1 -1 -1 -2 -2
-0 -0 -0 -0 -1 -2 -1 -3 -3 -1 0 -1 0 -1 -0 2 3 -0 -2 -2 2 2 2 0 1 1 0 3 2 4 2 -0 2 3 3 1 1 3 1 -1 -2 4 -0 -1 -2 -1 -1 0 2
-1 -0 -0 -1 -0 2 1 -0 1 -0 -0 -0 1 1 2 2 -1 -1 -0 -3 -2 1 2 2 5 7 6 5 3 6 3 -1 2 2 2 1 0 -2 -2 -3 -5 4 2 1 3 5 3 -4 -1
0 0 -1 -2 -0 0 -1 -0 0 -0 2 2 1 1 1 -0 -1 -1 -1 -0 1 4 5 5 4 4 3 2 3 2 -1 -1 -5 -6 -2 2 4 7 5 4 3 1 -0 -0 -1 5 4 4 1
-0 -1 0 2 -2 0 -0 1 -2 -0 -1 1 1 -1 0 3 2 2 5 5 4 2 3 4 3 3 2 1 0 2 5 5 1 2 -5 -5 -1 -2 -3 -0 0 -1 3 2 2 4 9 4 3
-0 0 1 0 1 1 3 2 -1 -0 0 -0 1 2 5 4 6 4 4 1 1 2 2 2 4 5 2 1 4 2 -3 -6 -3 1 -1 1 1 -3 -1 1 3 -0 1 1 4 6 2 11 7
-2 0 0 -0 -0 -1 -3 1 2 -1 -0 -1 0 -1 2 1 0 -0 1 3 4 3 3 1 -2 -0 -0 -0 -1 -3 1 3 3 0 -4 -1 2 5 1 -1 -3 -3 -2 -5 -3 -0 -4 4 12
0 -1 -1 -0 -1 -0 -0 2 2 1 2 -1 -0 4 1 2 2 2 2 3 1 0 1 2 -0 1 2 2 2 3 3 -0 -5 -2 -2 -2 -1 -6 -4 -1 1 2 -0 -1 0 4 7 6 15
-5 -3 -1 -3 -3 -1 0 -0 3 1 1 2 1 1 1 1 3 2 1 0 -0 0 -2 0 1 2 0 -3 0 2 4 3 3 -0 -7 -8 -9 -4 -1 1 0 -2 -4 -5 -5 -3 -1 0 4
1 -0 -1 -0 0 -1 -1 -0 5 2 3 2 -0 0 0 -0 0 -2 -2 -2 0 3 3 2 0 -0 4 3 2 -5 -4 -8 -8 -7 -5 -2 -5 -2 -0 0 -1 2 3 7 6 5 3 0 2
1 -3 0 -3 0 1 -0 -0 1 -1 -2 -0 -0 1 0 1 1 2 4 5 6 6 3 -8 -11 -10 -7 -4 -5 -5 -6 -3 -8 -3 2 -3 0 -1 1 3 -1 3 13 0 2 0 2 -7 -12
-2 -0 0 -2 -1 -1 -3 -1 -2 -0 -0 0 0 -1 -1 0 1 0 2 2 2 2 -2 -4 -1 -2 -2 -2 -1 -2 -1 -2 -0 -1 -3 1 5 5 7 7 6 5 2 -1 -2 -13 4 -2 -2
-2 -1 -2 -2 -1 -1 -0 -7 -3 -2 -1 -0 -1 -1 -1 -3 -4 -7 -6 -3 -2 2 -2 -3 0 1 3 1 0 -2 -3 -3 -5 -8 -7 -4 -0 4 5 2 2 1 -0 -9 -2 5 2 7 1
-0 -1 -1 -2 -1 0 0 -14 -1 -1 -0 -0 1 1 0 3 1 1 3 2 -1 2 3 3 3 -0 -4 -3 2 4 2 -2 -2 2 3 0 3 5 -0 2 -0 -2 -1 -2 15 3 1 -2 -1
Height
1520 1522 1523 1525 1529 1531 1542 1541 1541 1541 1543 1544 1544 1545 1547 1550 1549 1554 1555 1557 1559 1559 1559 1561 1561 1563 1563 1565 1566 1567 1566 1565 1566 1566 1562 1562 1565 1566 1565 1566 1567 1568 1568 1568 1566 1564 1562 1563 1562
1520 1522 1524 1524 1531 1535 1542 1541 1540 1541 1544 1546 1545 1547 1548 1552 1551 1553 1555 1556 1558 1558 1559 1560 1563 1563 1564 1564 1566 1566 1566 1567 1568 1566 1564 1563 1564 1566 1564 1567 1566 1567 1566 1565 1564 1561 1559 1559 1558
1521 1521 1526 1528 1538 1541 1543 1542 1541 1543 1543 1544 1546 1547 1547 1550 1551 1553 1555 1557 1558 1559 1560 1563 1562 1564 1565 1566 1569 1567 1565 1567 1568 1566 1565 1563 1565 1565 1565 1566 1565 1565 1564 1563 1561 1559 1557 1557 1556
1522 1523 1528 1529 1541 1544 1541 1541 1542 1543 1545 1544 1544 1547 1550 1550 1551 1553 1555 1557 1560 1561 1562 1562 1565 1566 1566 1566 1566 1567 1567 1567 1566 1566 1563 1563 1564 1564 1564 1563 1563 1562 1561 1561 1559 1557 1557 1556 1556
1521 1522 1530 1537 1542 1543 1543 1543 1544 1544 1543 1544 1544 1549 1552 1553 1553 1555 1556 1560 1561 1563 1563 1565 1565 1567 1567 1567 1567 1568 1567 1567 1568 1565 1564 1565 1565 1565 1565 1564 1563 1561 1561 1559 1557 1556 1555 1554 1553
1520 1524 1535 1541 1544 1544 1544 1544 1545 1545 1545 1546 1546 1548 1553 1553 1555 1556 1558 1560 1562 1563 1565 1565 1567 1568 1568 1568 1567 1567 1567 1567 1566 1565 1565 1564 1563 1563 1563 1562 1561 1561 1559 1558 1557 1555 1554 1553 1552
1522 1530 1545 1545 1545 1545 1543 1543 1544 1544 1546 1545 1546 1549 1553 1556 1558 1559 1560 1562 1563 1565 1566 1567 1568 1568 1568 1568 1568 1567 1567 1566 1565 1565 1565 1564 1564 1563 1562 1562 1561 1560 1559 1557 1556 1555 1554 1552 1551
1523 1530 1544 1545 1545 1545 1542 1544 1544 1545 1547 1545 1546 1547 1552 1553 1556 1559 1560 1560 1564 1564 1566 1566 1568 1568 1568 1567 1566 1566 1566 1565 1565 1564 1564 1563 1563 1562 1562 1561 1560 1559 1558 1557 1555 1554 1553 1551 1549
1525 1533 1543 1543 1541 1542 1543 1543 1542 1544 1545 1545 1548 1546 1547 1552 1554 1557 1560 1561 1562 1563 1565 1567 1567 1568 1567 1566 1565 1565 1565 1565 1564 1563 1562 1561 1561 1561 1560 1560 1559 1558 1556 1555 1554 1553 1551 1550 1549
1525 1535 1539 1539 1538 1541 1541 1543 1542 1545 1546 1546 1546 1546 1548 1550 1553 1557 1560 1562 1563 1563 1565 1566 1566 1567 1567 1566 1565 1565 1565 1564 1564 1563 1562 1561 1560 1560 1559 1558 1557 1556 1554 1553 1552 1551 1549 1548 1547
1527 1535 1536 1539 1538 1539 1540 1543 1542 1543 1544 1544 1545 1546 1548 1551 1553 1556 1560 1561 1562 1563 1564 1565 1566 1566 1566 1565 1565 1564 1564 1563 1563 1562 1561 1560 1559 1558 1557 1557 1555 1554 1552 1551 1549 1548 1547 1546 1545
1531 1535 1537 1539 1538 1538 1540 1543 1542 1544 1541 1544 1544 1546 1547 1549 1552 1556 1558 1559 1560 1561 1563 1564 1565 1565 1565 1565 1564 1563 1562 1562 1561 1561 1559 1558 1558 1557 1556 1555 1553 1552 1550 1548 1547 1545 1544 1543 1541
1530 1534 1535 1538 1538 1538 1539 1540 1541 1541 1540 1543 1543 1546 1548 1548 1551 1555 1557 1558 1560 1560 1561 1562 1563 1564 1564 1563 1562 1561 1561 1560 1559 1558 1557 1556 1555 1554 1553 1551 1550 1548 1546 1545 1543 1542 1541 1540 1539
1529 1533 1536 1537 1540 1540 1539 1540 1541 1540 1539 1542 1541 1544 1545 1547 1551 1553 1555 1556 1557 1559 1560 1561 1562 1563 1563 1562 1561 1560 1558 1557 1556 1555 1554 1553 1553 1552 1550 1549 1547 1545 1544 1542 1540 1538 1537 1536 1535
1530 1533 1537 1540 1541 1540 1539 1541 1539 1539 1539 1540 1539 1541 1543 1547 1549 1550 1553 1554 1555 1555 1557 1558 1560 1561 1561 1560 1559 1558 1557 1556 1555 1554 1553 1552 1551 1550 1548 1546 1545 1543 1541 1539 1537 1535 1534 1533 1532
1536 1537 1545 1542 1541 1542 1541 1542 1536 1538 1537 1536 1537 1538 1542 1545 1546 1548 1550 1551 1552 1553 1554 1555 1557 1558 1559 1558 1557 1557 1555 1554 1554 1553 1552 1551 1549 1547 1545 1544 1542 1540 1539 1537 1535 1533 1531 1529 1528
1544 1547 1550 1546 1545 1545 1543 1541 1536 1536 1534 1534 1534 1534 1537 1540 1543 1546 1548 1548 1549 1549 1550 1553 1555 1557 1556 1556 1555 1555 1554 1553 1553 1551 1550 1549 1547 1545 1543 1541 1538 1536 1534 1532 1531 1529 1527 1526 1524
1551 1552 1552 1551 1546 1544 1544 1541 1537 1534 1530 1532 1531 1530 1532 1537 1541 1544 1546 1546 1546 1546 1548 1551 1553 1554 1554 1553 1552 1552 1551 1551 1550 1548 1546 1544 1542 1539 1537 1534 1532 1531 1529 1527 1525 1524 1522 1521 1519
1548 1551 1551 1548 1548 1545 1545 1541 1538 1536 1532 1530 1530 1530 1533 1538 1542 1544 1544 1544 1544 1545 1548 1551 1553 1552 1552 1550 1550 1550 1549 1548 1547 1545 1543 1540 1537 1534 1531 1528 1525 1522 1520 1520 1519 1518 1515 1513 1513
1547 1550 1549 1546 1546 1544 1543 1540 1541 1538 1537 1535 1534 1535 1537 1540 1543 1544 1545 1545 1546 1547 1549 1550 1550 1550 1549 1549 1547 1546 1545 1543 1542 1540 1538 1535 1532 1528 1524 1520 1516 1514 1511 1509 1509 1509 1508 1507 1506
1548 1547 1550 1551 1546 1545 1544 1540 1541 1540 1540 1539 1539 1540 1541 1542 1544 1545 1546 1547 1547 1548 1548 1549 1549 1548 1546 1546 1545 1544 1541 1539 1537 1535 1532 1529 1525 1521 1517 1514 1511 1508 1505 1501 1499 1497 1497 1496 1496
1550 1548 1549 1550 1550 1547 1549 1544 1542 1545 1542 1542 1542 1542 1543 1545 1546 1547 1547 1546 1547 1547 1547 1547 1547 1546 1544 1544 1543 1540 1537 1534 1531 1528 1524 1520 1517 1514 1510 1506 1502 1498 1496 1492 1490 1488 1485 1486 1486
1549 1548 1548 1548 1548 1549 1547 1545 1543 1545 1544 1543 1544 1545 1546 1547 1547 1547 1547 1546 1546 1546 1546 1546 1546 1545 1544 1542 1539 1536 1533 1529 1525 1522 1517 1514 1510 1506 1501 1496 1492 1489 1485 1483 1480 1477 1474 1473 1474
1547 1547 1548 1551 1551 1553 1555 1554 1551 1547 1548 1546 1545 1547 1547 1548 1548 1547 1547 1547 1546 1546 1546 1545 1545 1543 1541 1538 1535 1531 1527 1523 1519 1516 1511 1507 1502 1497 1493 1489 1484 1479 1475 1472 1469 1467 1465 1465 1464
1547 1548 1552 1553 1556 1554 1557 1556 1551 1551 1551 1550 1549 1549 1549 1548 1547 1547 1548 1548 1548 1547 1546 1544 1542 1539 1535 1533 1530 1527 1524 1520 1516 1511 1506 1501 1494 1490 1485 1481 1477 1472 1467 1464 1464 1463 1463 1462 1463
1554 1555 1562 1567 1567 1563 1559 1556 1554 1554 1552 1550 1550 1550 1551 1550 1549 1549 1549 1549 1548 1545 1542 1539 1536 1535 1532 1529 1526 1524 1521 1517 1512 1506 1500 1494 1487 1482 1478 1475 1473 1471 1467 1465 1462 1463 1461 1461 1461
1555 1561 1565 1576 1601 1577 1561 1556 1554 1552 1550 1550 1551 1551 1551 1550 1550 1549 1548 1547 1544 1542 1539 1537 1535 1533 1530 1527 1523 1520 1516 1511 1505 1498 1493 1485 1478 1474 1474 1472 1471 1472 1467 1464 1462 1461 1459 1456 1455
1555 1562 1564 1569 1576 1576 1558 1561 1547 1553 1552 1553 1552 1551 1550 1550 1548 1547 1545 1544 1542 1539 1536 1534 1531 1528 1525 1522 1518 1513 1508 1503 1497 1490 1483 1477 1472 1470 1471 1471 1470 1467 1464 1461 1459 1457 1458 1455 1454
1562 1564 1570 1572 1577 1576 1581 1555 1548 1550 1550 1550 1551 1551 1549 1548 1547 1545 1543 1540 1536 1534 1532 1530 1527 1523 1520 1515 1511 1507 1501 1494 1488 1481 1476 1474 1472 1470 1469 1467 1465 1462 1460 1456 1458 1457 1455 1454 1452
1564 1566 1569 1573 1577 1579 1583 1562 1547 1548 1548 1548 1548 1548 1547 1545 1543 1540 1537 1535 1533 1531 1529 1525 1521 1518 1514 1510 1505 1500 1495 1490 1485 1479 1473 1470 1470 1468 1466 1464 1461 1459 1456 1457 1455 1453 1451 1450 1448